This is the latest recevied weather packets stored in our database for station/object N8QF-1. If no packets are shown the sender has not sent any weather packets the latest 10 day(s).
| Time | Temp. | Humidity | Pressure | Rain* | Wind** | Luminosity | Snow |
|---|---|---|---|---|---|---|---|
| 1777917766 | 22.22° C | 50% | 1007.9 hPa | 0 mm | - | - | - |
| 1777917466 | 21.67° C | 51% | 1007.8 hPa | 0 mm | - | - | - |
| 1777917166 | 21.67° C | 50% | 1007.9 hPa | 0 mm | - | - | - |
| 1777916865 | 21.11° C | 49% | 1007.7 hPa | 0 mm | - | - | - |
| 1777916564 | 21.67° C | 50% | 1007.6 hPa | 0 mm | - | - | - |
| 1777916264 | 21.67° C | 51% | 1007.8 hPa | 0 mm | - | - | - |
| 1777915963 | 20.56° C | 50% | 1008 hPa | 0 mm | - | - | - |
| 1777915663 | 20.56° C | 51% | 1008 hPa | 0 mm | - | - | - |
| 1777915362 | 20.56° C | 52% | 1008 hPa | 0 mm | - | - | - |
| 1777915062 | 20.56° C | 52% | 1008.1 hPa | 0 mm | - | - | - |
| 1777914761 | 20° C | 53% | 1008.1 hPa | 0 mm | - | - | - |
| 1777914461 | 20° C | 53% | 1008.3 hPa | 0 mm | - | - | - |
| 1777914160 | 20° C | 53% | 1008.2 hPa | 0 mm | - | - | - |
| 1777913859 | 19.44° C | 54% | 1008.2 hPa | 0 mm | - | - | - |
| 1777913558 | 18.89° C | 54% | 1008.2 hPa | 0 mm | - | - | - |
| 1777913258 | 18.89° C | 54% | 1008.3 hPa | 0 mm | - | - | - |
| 1777912957 | 18.89° C | 54% | 1008.4 hPa | 0 mm | - | - | - |
| 1777912656 | 18.89° C | 55% | 1008.5 hPa | 0 mm | - | - | - |
| 1777912356 | 18.33° C | 55% | 1008.5 hPa | 0 mm | - | - | - |
| 1777912055 | 18.33° C | 54% | 1008.6 hPa | 0 mm | - | - | - |
| 1777911755 | 18.33° C | 54% | 1008.7 hPa | 0 mm | - | - | - |
| 1777911454 | 18.33° C | 53% | 1008.8 hPa | 0 mm | - | - | - |
| 1777911154 | 18.89° C | 54% | 1008.7 hPa | 0 mm | - | - | - |
| 1777910853 | 18.89° C | 53% | 1008.6 hPa | 0 mm | - | - | - |
| 1777910553 | 18.89° C | 53% | 1008.5 hPa | 0 mm | - | - | - |
* Rain latest hour (hover to see other rain measurements)
** Current wind speed in m/s (hover to see current wind gust speed)